Wetterdaten: Montag, 05.04.2010
Datum Zeit Temp. A. Feuchte A. Luftdruck Regen Wind Richtung Richtung Sonnenschein UV Solar Windben
05.04.2010 00:00 7,0 C 89 % 1012,9 hPa 0,5 mm 4,8 km/h (1 Bft) W-SW 247 0 min 0 UV-I 0 W/m 14,5 km/h (3 Bft)
05.04.2010 00:10 7,0 C 89 % 1013,5 hPa 0,0 mm 4,8 km/h (1 Bft) W-SW 247 0 min 0 UV-I 0 W/m 16,1 km/h (3 Bft)
05.04.2010 00:20 7,0 C 90 % 1013,9 hPa 0,0 mm 6,4 km/h (2 Bft) W 270 0 min 0 UV-I 0 W/m 17,7 km/h (3 Bft)
05.04.2010 00:30 7,0 C 90 % 1013,9 hPa 0,0 mm 4,8 km/h (1 Bft) W 270 0 min 0 UV-I 0 W/m 17,7 km/h (3 Bft)
05.04.2010 00:40 6,9 C 90 % 1014,0 hPa 0,0 mm 6,4 km/h (2 Bft) W 270 0 min 0 UV-I 0 W/m 17,7 km/h (3 Bft)
05.04.2010 00:50 6,9 C 90 % 1014,2 hPa 0,0 mm 4,8 km/h (1 Bft) W 270 0 min 0 UV-I 0 W/m 14,5 km/h (3 Bft)
05.04.2010 01:00 7,0 C 89 % 1014,5 hPa 0,0 mm 4,8 km/h (1 Bft) W 270 0 min 0 UV-I 0 W/m 17,7 km/h (3 Bft)
05.04.2010 01:10 6,9 C 89 % 1015,0 hPa 0,0 mm 4,8 km/h (1 Bft) W 270 0 min 0 UV-I 0 W/m 17,7 km/h (3 Bft)
05.04.2010 01:20 7,0 C 89 % 1015,1 hPa 0,0 mm 4,8 km/h (1 Bft) W 270 0 min 0 UV-I 0 W/m 19,3 km/h (3 Bft)
05.04.2010 01:30 7,0 C 89 % 1015,4 hPa 0,0 mm 8,0 km/h (2 Bft) SW 225 0 min 0 UV-I 0 W/m 20,9 km/h (4 Bft)
05.04.2010 01:40 6,9 C 89 % 1016,6 hPa 0,0 mm 8,0 km/h (2 Bft) W-SW 247 0 min 0 UV-I 0 W/m 24,1 km/h (4 Bft)
05.04.2010 01:50 6,9 C 89 % 1016,8 hPa 0,0 mm 8,0 km/h (2 Bft) W 270 0 min 0 UV-I 0 W/m 20,9 km/h (4 Bft)
05.04.2010 02:00 6,9 C 89 % 1017,0 hPa 0,0 mm 8,0 km/h (2 Bft) W-SW 247 0 min 0 UV-I 0 W/m 27,4 km/h (4 Bft)
05.04.2010 02:10 6,8 C 88 % 1017,2 hPa 0,0 mm 6,4 km/h (2 Bft) W 270 0 min 0 UV-I 0 W/m 20,9 km/h (4 Bft)
05.04.2010 02:20 6,8 C 88 % 1016,5 hPa 0,0 mm 6,4 km/h (2 Bft) W 270 0 min 0 UV-I 0 W/m 24,1 km/h (4 Bft)
05.04.2010 02:30 6,8 C 87 % 1016,8 hPa 0,0 mm 9,7 km/h (2 Bft) W 270 0 min 0 UV-I 0 W/m 24,1 km/h (4 Bft)
05.04.2010 02:40 6,7 C 85 % 1017,0 hPa 0,0 mm 11,3 km/h (2 Bft) W 270 0 min 0 UV-I 0 W/m 22,5 km/h (4 Bft)
05.04.2010 02:50 6,6 C 85 % 1017,1 hPa 0,0 mm 9,7 km/h (2 Bft) W 270 0 min 0 UV-I 0 W/m 25,7 km/h (4 Bft)
05.04.2010 03:00 6,4 C 84 % 1017,3 hPa 0,0 mm 8,0 km/h (2 Bft) W 270 0 min 0 UV-I 0 W/m 27,4 km/h (4 Bft)
05.04.2010 03:10 6,3 C 85 % 1017,4 hPa 0,0 mm 8,0 km/h (2 Bft) W-SW 247 0 min 0 UV-I 0 W/m 27,4 km/h (4 Bft)
05.04.2010 03:20 6,3 C 85 % 1017,7 hPa 0,0 mm 6,4 km/h (2 Bft) W 270 0 min 0 UV-I 0 W/m 19,3 km/h (3 Bft)
05.04.2010 03:30 6,3 C 85 % 1018,0 hPa 0,0 mm 4,8 km/h (1 Bft) W 270 0 min 0 UV-I 0 W/m 16,1 km/h (3 Bft)
05.04.2010 03:40 6,3 C 85 % 1018,4 hPa 0,0 mm 6,4 km/h (2 Bft) SW 225 0 min 0 UV-I 0 W/m 20,9 km/h (4 Bft)
05.04.2010 03:50 6,3 C 85 % 1018,3 hPa 0,0 mm 8,0 km/h (2 Bft) W 270 0 min 0 UV-I 0 W/m 22,5 km/h (4 Bft)
05.04.2010 04:00 6,3 C 83 % 1018,3 hPa 0,0 mm 9,7 km/h (2 Bft) W 270 0 min 0 UV-I 0 W/m 25,7 km/h (4 Bft)
05.04.2010 04:10 6,3 C 83 % 1018,8 hPa 0,0 mm 8,0 km/h (2 Bft) W 270 0 min 0 UV-I 0 W/m 24,1 km/h (4 Bft)
05.04.2010 04:20 6,3 C 83 % 1019,1 hPa 0,0 mm 6,4 km/h (2 Bft) W 270 0 min 0 UV-I 0 W/m 19,3 km/h (3 Bft)
05.04.2010 04:30 6,3 C 83 % 1019,1 hPa 0,0 mm 6,4 km/h (2 Bft) W 270 0 min 0 UV-I 0 W/m 20,9 km/h (4 Bft)
05.04.2010 04:40 6,3 C 83 % 1019,3 hPa 0,0 mm 4,8 km/h (1 Bft) W 270 0 min 0 UV-I 0 W/m 17,7 km/h (3 Bft)
05.04.2010 04:50 6,2 C 83 % 1019,0 hPa 0,0 mm 4,8 km/h (1 Bft) W 270 0 min 0 UV-I 0 W/m 16,1 km/h (3 Bft)
05.04.2010 05:00 6,1 C 83 % 1019,2 hPa 0,0 mm 8,0 km/h (2 Bft) W-SW 247 0 min 0 UV-I 0 W/m 17,7 km/h (3 Bft)
05.04.2010 05:10 6,1 C 83 % 1019,0 hPa 0,0 mm 8,0 km/h (2 Bft) W-SW 247 0 min 0 UV-I 0 W/m 19,3 km/h (3 Bft)
05.04.2010 05:20 6,0 C 83 % 1018,2 hPa 0,0 mm 4,8 km/h (1 Bft) W 270 0 min 0 UV-I 0 W/m 19,3 km/h (3 Bft)
05.04.2010 05:30 5,9 C 82 % 1018,4 hPa 0,0 mm 8,0 km/h (2 Bft) W 270 0 min 0 UV-I 0 W/m 19,3 km/h (3 Bft)
05.04.2010 05:40 5,8 C 81 % 1018,6 hPa 0,0 mm 8,0 km/h (2 Bft) W-SW 247 0 min 0 UV-I 0 W/m 20,9 km/h (4 Bft)
05.04.2010 05:50 5,8 C 81 % 1019,0 hPa 0,0 mm 6,4 km/h (2 Bft) W 270 0 min 0 UV-I 0 W/m 16,1 km/h (3 Bft)
05.04.2010 06:00 5,7 C 81 % 1019,1 hPa 0,0 mm 4,8 km/h (1 Bft) W 270 0 min 0 UV-I 0 W/m 17,7 km/h (3 Bft)
05.04.2010 06:10 5,7 C 81 % 1019,0 hPa 0,0 mm 3,2 km/h (1 Bft) W 270 0 min 0 UV-I 0 W/m 9,7 km/h (2 Bft)
05.04.2010 06:20 5,7 C 82 % 1018,8 hPa 0,0 mm 3,2 km/h (1 Bft) W 270 0 min 0 UV-I 0 W/m 6,4 km/h (2 Bft)
05.04.2010 06:30 5,7 C 82 % 1018,5 hPa 0,0 mm 3,2 km/h (1 Bft) W-SW 247 0 min 0 UV-I 0 W/m 11,3 km/h (2 Bft)
05.04.2010 06:40 5,8 C 83 % 1018,2 hPa 0,0 mm 3,2 km/h (1 Bft) SW 225 0 min 0 UV-I 0 W/m 9,7 km/h (2 Bft)
05.04.2010 06:50 5,8 C 83 % 1018,5 hPa 0,0 mm 1,6 km/h (1 Bft) W-SW 247 0 min 0 UV-I 0 W/m 8,0 km/h (2 Bft)
05.04.2010 07:00 5,8 C 83 % 1018,8 hPa 0,0 mm 3,2 km/h (1 Bft) W 270 0 min 0 UV-I 0 W/m 8,0 km/h (2 Bft)
05.04.2010 07:10 5,9 C 83 % 1018,6 hPa 0,0 mm 3,2 km/h (1 Bft) W-SW 247 0 min 0 UV-I 0 W/m 9,7 km/h (2 Bft)
05.04.2010 07:20 5,9 C 83 % 1018,7 hPa 0,0 mm 3,2 km/h (1 Bft) W-SW 247 0 min 0 UV-I 0 W/m 11,3 km/h (2 Bft)
05.04.2010 07:30 6,0 C 83 % 1019,0 hPa 0,0 mm 1,6 km/h (1 Bft) W-SW 247 0 min 0 UV-I 7 W/m 8,0 km/h (2 Bft)
05.04.2010 07:40 6,0 C 83 % 1019,0 hPa 0,0 mm 3,2 km/h (1 Bft) W-SW 247 0 min 0 UV-I 9 W/m 9,7 km/h (2 Bft)
05.04.2010 07:50 6,1 C 83 % 1019,0 hPa 0,0 mm 3,2 km/h (1 Bft) W 270 0 min 0 UV-I 19 W/m 11,3 km/h (2 Bft)
05.04.2010 08:00 6,2 C 83 % 1019,0 hPa 0,0 mm 7,5 km/h (2 Bft) W-SW 254 0 min 0 UV-I 22 W/m 12,9 km/h (3 Bft)
05.04.2010 08:10 6,2 C 83 % 1019,1 hPa 0,0 mm 3,2 km/h (1 Bft) SW 225 0 min 0 UV-I 37 W/m 11,3 km/h (2 Bft)
05.04.2010 08:20 6,3 C 83 % 1019,2 hPa 0,0 mm 4,8 km/h (1 Bft) W 270 0 min 0 UV-I 42 W/m 14,5 km/h (3 Bft)
05.04.2010 08:30 6,3 C 83 % 1019,3 hPa 0,0 mm 6,4 km/h (2 Bft) W 270 0 min 0 UV-I 44 W/m 17,7 km/h (3 Bft)
05.04.2010 08:40 6,3 C 83 % 1019,5 hPa 0,0 mm 4,8 km/h (1 Bft) W 270 0 min 0 UV-I 42 W/m 17,7 km/h (3 Bft)
05.04.2010 08:50 6,3 C 83 % 1019,8 hPa 0,0 mm 6,4 km/h (2 Bft) W 270 0 min 0 UV-I 84 W/m 22,5 km/h (4 Bft)
05.04.2010 09:00 6,4 C 83 % 1020,0 hPa 0,0 mm 6,4 km/h (2 Bft) W 270 0 min 1 UV-I 107 W/m 17,7 km/h (3 Bft)
05.04.2010 09:10 6,5 C 83 % 1021,0 hPa 0,0 mm 4,8 km/h (1 Bft) SW 225 0 min 1 UV-I 118 W/m 14,5 km/h (3 Bft)
05.04.2010 09:20 6,5 C 83 % 1021,5 hPa 0,0 mm 4,8 km/h (1 Bft) SW 225 0 min 1 UV-I 144 W/m 14,5 km/h (3 Bft)
05.04.2010 09:30 6,5 C 82 % 1022,1 hPa 0,0 mm 8,0 km/h (2 Bft) W 270 0 min 1 UV-I 190 W/m 19,3 km/h (3 Bft)
05.04.2010 09:40 6,7 C 81 % 1022,6 hPa 0,0 mm 9,7 km/h (2 Bft) W-SW 247 10 min 1 UV-I 366 W/m 22,5 km/h (4 Bft)
05.04.2010 09:50 6,7 C 80 % 1022,8 hPa 0,0 mm 6,4 km/h (2 Bft) W 270 10 min 1 UV-I 475 W/m 19,3 km/h (3 Bft)
05.04.2010 10:00 6,8 C 80 % 1023,2 hPa 0,0 mm 8,0 km/h (2 Bft) W 270 10 min 2 UV-I 557 W/m 19,3 km/h (3 Bft)
05.04.2010 10:10 7,1 C 80 % 1023,4 hPa 0,0 mm 6,4 km/h (2 Bft) W 270 10 min 2 UV-I 490 W/m 16,1 km/h (3 Bft)
05.04.2010 10:20 7,2 C 80 % 1023,5 hPa 0,0 mm 4,8 km/h (1 Bft) W-NW 292 10 min 1 UV-I 376 W/m 17,7 km/h (3 Bft)
05.04.2010 10:30 7,2 C 79 % 1023,6 hPa 0,0 mm 3,2 km/h (1 Bft) W 270 0 min 2 UV-I 241 W/m 9,7 km/h (2 Bft)
05.04.2010 10:40 7,3 C 80 % 1023,7 hPa 0,0 mm 4,8 km/h (1 Bft) W 270 10 min 2 UV-I 633 W/m 11,3 km/h (2 Bft)
05.04.2010 10:50 7,5 C 78 % 1024,0 hPa 0,0 mm 3,2 km/h (1 Bft) SW 225 10 min 2 UV-I 652 W/m 11,3 km/h (2 Bft)
05.04.2010 11:00 8,2 C 76 % 1024,0 hPa 0,0 mm 4,8 km/h (1 Bft) W-SW 247 10 min 2 UV-I 691 W/m 14,5 km/h (3 Bft)
05.04.2010 11:10 8,4 C 76 % 1023,5 hPa 0,0 mm 4,8 km/h (1 Bft) W 270 10 min 2 UV-I 446 W/m 14,5 km/h (3 Bft)
05.04.2010 11:20 8,9 C 74 % 1023,4 hPa 0,0 mm 3,2 km/h (1 Bft) SW 225 10 min 3 UV-I 819 W/m 11,3 km/h (2 Bft)
05.04.2010 11:30 9,2 C 73 % 1023,4 hPa 0,0 mm 4,8 km/h (1 Bft) W 270 10 min 2 UV-I 666 W/m 14,5 km/h (3 Bft)
05.04.2010 11:40 9,0 C 73 % 1023,5 hPa 0,0 mm 3,2 km/h (1 Bft) W 270 10 min 2 UV-I 392 W/m 11,3 km/h (2 Bft)
05.04.2010 11:50 9,2 C 71 % 1023,6 hPa 0,0 mm 6,4 km/h (2 Bft) W 270 10 min 3 UV-I 385 W/m 16,1 km/h (3 Bft)
05.04.2010 12:00 9,6 C 69 % 1023,8 hPa 0,0 mm 4,8 km/h (1 Bft) W 270 10 min 3 UV-I 853 W/m 16,1 km/h (3 Bft)
05.04.2010 12:10 10,0 C 69 % 1024,0 hPa 0,0 mm 3,2 km/h (1 Bft) W-NW 292 10 min 4 UV-I 942 W/m 14,5 km/h (3 Bft)
05.04.2010 12:20 10,3 C 66 % 1024,2 hPa 0,0 mm 4,8 km/h (1 Bft) W-NW 292 10 min 4 UV-I 928 W/m 16,1 km/h (3 Bft)
05.04.2010 12:30 10,4 C 63 % 1024,4 hPa 0,0 mm 8,0 km/h (2 Bft) W 270 10 min 3 UV-I 745 W/m 22,5 km/h (4 Bft)
05.04.2010 12:40 9,9 C 63 % 1024,6 hPa 0,0 mm 8,0 km/h (2 Bft) W 270 10 min 3 UV-I 643 W/m 19,3 km/h (3 Bft)
05.04.2010 12:50 10,1 C 58 % 1024,7 hPa 0,0 mm 9,7 km/h (2 Bft) W 270 0 min 2 UV-I 308 W/m 22,5 km/h (4 Bft)
05.04.2010 13:00 10,2 C 57 % 1024,6 hPa 0,0 mm 9,7 km/h (2 Bft) W 270 10 min 4 UV-I 800 W/m 20,9 km/h (4 Bft)
05.04.2010 13:10 10,6 C 52 % 1024,7 hPa 0,0 mm 6,4 km/h (2 Bft) W 270 10 min 4 UV-I 524 W/m 17,7 km/h (3 Bft)
05.04.2010 13:20 11,0 C 49 % 1024,2 hPa 0,0 mm 8,0 km/h (2 Bft) W 270 10 min 4 UV-I 805 W/m 24,1 km/h (4 Bft)
05.04.2010 13:30 11,4 C 48 % 1023,9 hPa 0,0 mm 6,4 km/h (2 Bft) W 270 10 min 4 UV-I 846 W/m 17,7 km/h (3 Bft)
05.04.2010 13:40 11,3 C 46 % 1023,9 hPa 0,0 mm 6,4 km/h (2 Bft) W-NW 292 10 min 4 UV-I 904 W/m 22,5 km/h (4 Bft)
05.04.2010 13:50 11,3 C 49 % 1023,9 hPa 0,0 mm 6,4 km/h (2 Bft) W 270 0 min 3 UV-I 327 W/m 22,5 km/h (4 Bft)
05.04.2010 14:00 10,8 C 48 % 1023,5 hPa 0,0 mm 8,0 km/h (2 Bft) W 270 0 min 4 UV-I 295 W/m 22,5 km/h (4 Bft)
05.04.2010 14:10 11,3 C 45 % 1023,9 hPa 0,0 mm 6,4 km/h (2 Bft) W 270 10 min 4 UV-I 856 W/m 17,7 km/h (3 Bft)
05.04.2010 14:20 12,3 C 47 % 1024,3 hPa 0,0 mm 6,4 km/h (2 Bft) W 270 10 min 4 UV-I 803 W/m 17,7 km/h (3 Bft)
05.04.2010 14:30 11,7 C 47 % 1024,6 hPa 0,0 mm 8,0 km/h (2 Bft) W-SW 247 0 min 3 UV-I 338 W/m 19,3 km/h (3 Bft)
05.04.2010 14:40 11,4 C 49 % 1024,9 hPa 0,0 mm 6,4 km/h (2 Bft) W 270 10 min 3 UV-I 819 W/m 17,7 km/h (3 Bft)
05.04.2010 14:50 11,7 C 49 % 1025,0 hPa 0,0 mm 4,8 km/h (1 Bft) W-NW 292 10 min 3 UV-I 830 W/m 16,1 km/h (3 Bft)
05.04.2010 15:00 11,4 C 50 % 1025,0 hPa 0,0 mm 4,8 km/h (1 Bft) W-NW 292 10 min 2 UV-I 487 W/m 17,7 km/h (3 Bft)
05.04.2010 15:10 11,4 C 47 % 1025,0 hPa 0,0 mm 6,4 km/h (2 Bft) W 270 0 min 1 UV-I 248 W/m 19,3 km/h (3 Bft)
05.04.2010 15:20 11,2 C 48 % 1025,0 hPa 0,0 mm 8,0 km/h (2 Bft) W 270 10 min 3 UV-I 802 W/m 19,3 km/h (3 Bft)
05.04.2010 15:30 11,6 C 47 % 1024,9 hPa 0,0 mm 4,8 km/h (1 Bft) W 270 10 min 3 UV-I 547 W/m 14,5 km/h (3 Bft)
05.04.2010 15:40 11,3 C 48 % 1024,9 hPa 0,0 mm 4,8 km/h (1 Bft) W 270 0 min 1 UV-I 262 W/m 17,7 km/h (3 Bft)
05.04.2010 15:50 11,5 C 45 % 1024,8 hPa 0,0 mm 4,8 km/h (1 Bft) W 270 10 min 2 UV-I 432 W/m 11,3 km/h (2 Bft)
05.04.2010 16:01 11,9 C 47 % 1024,9 hPa 0,0 mm 4,0 km/h (1 Bft) W-NW 291 11 min 2 UV-I 396 W/m 8,0 km/h (2 Bft)
05.04.2010 16:10 11,9 C 45 % 1024,9 hPa 0,0 mm 6,4 km/h (2 Bft) W 270 9 min 2 UV-I 564 W/m 19,3 km/h (3 Bft)
05.04.2010 16:20 11,7 C 45 % 1024,9 hPa 0,0 mm 6,4 km/h (2 Bft) W-SW 247 0 min 1 UV-I 285 W/m 16,1 km/h (3 Bft)
05.04.2010 16:30 11,8 C 46 % 1024,9 hPa 0,0 mm 4,8 km/h (1 Bft) W 270 10 min 2 UV-I 589 W/m 17,7 km/h (3 Bft)
05.04.2010 16:40 12,1 C 47 % 1024,8 hPa 0,0 mm 4,8 km/h (1 Bft) W 270 10 min 2 UV-I 387 W/m 11,3 km/h (2 Bft)
05.04.2010 16:50 12,2 C 46 % 1024,8 hPa 0,0 mm 4,8 km/h (1 Bft) W 270 10 min 2 UV-I 592 W/m 14,5 km/h (3 Bft)
05.04.2010 17:00 12,2 C 46 % 1024,8 hPa 0,0 mm 3,2 km/h (1 Bft) W 270 10 min 1 UV-I 299 W/m 8,0 km/h (2 Bft)
05.04.2010 17:10 11,9 C 46 % 1024,9 hPa 0,0 mm 4,8 km/h (1 Bft) W 270 0 min 1 UV-I 202 W/m 16,1 km/h (3 Bft)
05.04.2010 17:20 11,8 C 47 % 1024,9 hPa 0,0 mm 3,2 km/h (1 Bft) W 270 10 min 1 UV-I 341 W/m 16,1 km/h (3 Bft)
05.04.2010 17:30 11,8 C 47 % 1024,9 hPa 0,0 mm 3,2 km/h (1 Bft) W-NW 292 0 min 1 UV-I 209 W/m 11,3 km/h (2 Bft)
05.04.2010 17:40 11,6 C 48 % 1024,9 hPa 0,0 mm 3,2 km/h (1 Bft) W 270 0 min 1 UV-I 142 W/m 11,3 km/h (2 Bft)
05.04.2010 17:50 11,6 C 49 % 1024,9 hPa 0,0 mm 3,2 km/h (1 Bft) W 270 0 min 1 UV-I 146 W/m 16,1 km/h (3 Bft)
05.04.2010 18:00 11,4 C 50 % 1024,9 hPa 0,0 mm 3,2 km/h (1 Bft) W 270 0 min 1 UV-I 79 W/m 9,7 km/h (2 Bft)
05.04.2010 18:10 11,2 C 51 % 1024,9 hPa 0,0 mm 3,2 km/h (1 Bft) W 270 0 min 0 UV-I 58 W/m 11,3 km/h (2 Bft)
05.04.2010 18:20 11,1 C 52 % 1025,0 hPa 0,0 mm 3,2 km/h (1 Bft) W 270 0 min 0 UV-I 74 W/m 9,7 km/h (2 Bft)
05.04.2010 18:30 11,1 C 51 % 1025,0 hPa 0,0 mm 3,2 km/h (1 Bft) W-SW 247 0 min 0 UV-I 86 W/m 11,3 km/h (2 Bft)
05.04.2010 18:40 11,1 C 51 % 1025,0 hPa 0,0 mm 4,8 km/h (1 Bft) W 270 0 min 0 UV-I 54 W/m 16,1 km/h (3 Bft)
05.04.2010 18:50 11,1 C 51 % 1025,2 hPa 0,0 mm 4,8 km/h (1 Bft) W-SW 247 0 min 0 UV-I 56 W/m 19,3 km/h (3 Bft)
05.04.2010 19:00 11,0 C 51 % 1025,2 hPa 0,0 mm 4,8 km/h (1 Bft) W 270 0 min 0 UV-I 54 W/m 14,5 km/h (3 Bft)
05.04.2010 19:10 10,9 C 52 % 1025,2 hPa 0,0 mm 4,8 km/h (1 Bft) W-SW 247 0 min 0 UV-I 47 W/m 17,7 km/h (3 Bft)
05.04.2010 19:20 10,8 C 53 % 1025,2 hPa 0,0 mm 4,8 km/h (1 Bft) W 270 0 min 0 UV-I 39 W/m 16,1 km/h (3 Bft)
05.04.2010 19:30 10,8 C 53 % 1025,2 hPa 0,0 mm 3,2 km/h (1 Bft) W-SW 247 0 min 0 UV-I 32 W/m 8,0 km/h (2 Bft)
05.04.2010 19:40 10,7 C 54 % 1025,3 hPa 0,0 mm 3,2 km/h (1 Bft) W 270 0 min 0 UV-I 21 W/m 8,0 km/h (2 Bft)
05.04.2010 19:50 10,6 C 54 % 1025,3 hPa 0,0 mm 1,6 km/h (1 Bft) W 270 0 min 0 UV-I 12 W/m 6,4 km/h (2 Bft)
05.04.2010 20:00 10,4 C 54 % 1025,4 hPa 0,0 mm 1,6 km/h (1 Bft) W 270 0 min 0 UV-I 7 W/m 8,0 km/h (2 Bft)
05.04.2010 21:00 10,2 C 54 % 1025,6 hPa 0,0 mm 0,0 km/h (0 Bft) W 270 0 min 0 UV-I 7 W/m 0,0 km/h (0 Bft)
05.04.2010 21:10 10,1 C 55 % 1025,7 hPa 0,0 mm 1,6 km/h (1 Bft) W 270 0 min 0 UV-I 0 W/m 6,4 km/h (2 Bft)
05.04.2010 21:20 10,0 C 55 % 1025,8 hPa 0,0 mm 1,6 km/h (1 Bft) W-SW 247 0 min 0 UV-I 0 W/m 4,8 km/h (1 Bft)
05.04.2010 21:30 9,9 C 57 % 1025,9 hPa 0,0 mm 1,6 km/h (1 Bft) W-SW 247 0 min 0 UV-I 0 W/m 6,4 km/h (2 Bft)
05.04.2010 21:10 9,7 C 57 % 1026,0 hPa 0,0 mm 1,4 km/h (1 Bft) W 277 0 min 0 UV-I 0 W/m 8,0 km/h (2 Bft)
05.04.2010 21:20 9,7 C 58 % 1026,0 hPa 0,0 mm 2,0 km/h (1 Bft) W 267 0 min 0 UV-I 0 W/m 8,0 km/h (2 Bft)
05.04.2010 21:30 9,6 C 58 % 1026,0 hPa 0,0 mm 1,0 km/h (0 Bft) W 273 0 min 0 UV-I 0 W/m 6,4 km/h (2 Bft)
05.04.2010 21:40 9,4 C 59 % 1026,1 hPa 0,0 mm 0,4 km/h (0 Bft) W 275 0 min 0 UV-I 0 W/m 4,8 km/h (1 Bft)
05.04.2010 21:50 9,3 C 59 % 1026,1 hPa 0,0 mm 0,2 km/h (0 Bft) W 275 0 min 0 UV-I 0 W/m 1,6 km/h (1 Bft)
05.04.2010 22:00 9,2 C 60 % 1026,1 hPa 0,0 mm 0,1 km/h (0 Bft) W 275 0 min 0 UV-I 0 W/m 1,6 km/h (1 Bft)
05.04.2010 22:10 9,2 C 60 % 1026,0 hPa 0,0 mm 0,1 km/h (0 Bft) W 275 0 min 0 UV-I 0 W/m 1,6 km/h (1 Bft)
05.04.2010 22:20 9,1 C 61 % 1026,0 hPa 0,0 mm 0,0 km/h (0 Bft) W 275 0 min 0 UV-I 0 W/m 0,0 km/h (0 Bft)
05.04.2010 22:30 8,9 C 62 % 1026,0 hPa 0,0 mm 0,0 km/h (0 Bft) N 0 0 min 0 UV-I 0 W/m 0,0 km/h (0 Bft)
05.04.2010 22:40 8,7 C 63 % 1025,9 hPa 0,0 mm 0,0 km/h (0 Bft) N 0 0 min 0 UV-I 0 W/m 0,0 km/h (0 Bft)
05.04.2010 22:50 8,4 C 64 % 1025,9 hPa 0,0 mm 0,0 km/h (0 Bft) N 0 0 min 0 UV-I 0 W/m 0,0 km/h (0 Bft)
05.04.2010 23:00 8,2 C 65 % 1026,0 hPa 0,0 mm 0,0 km/h (0 Bft) N 0 0 min 0 UV-I 0 W/m 0,0 km/h (0 Bft)
05.04.2010 23:10 7,6 C 68 % 1026,0 hPa 0,0 mm 0,0 km/h (0 Bft) N 0 0 min 0 UV-I 0 W/m 0,0 km/h (0 Bft)
05.04.2010 23:20 7,2 C 69 % 1026,1 hPa 0,0 mm 0,0 km/h (0 Bft) N 0 0 min 0 UV-I 0 W/m 0,0 km/h (0 Bft)
05.04.2010 23:30 6,8 C 72 % 1026,1 hPa 0,0 mm 0,0 km/h (0 Bft) N 0 0 min 0 UV-I 0 W/m 0,0 km/h (0 Bft)
05.04.2010 23:40 6,5 C 73 % 1026,2 hPa 0,0 mm 0,0 km/h (0 Bft) N 0 0 min 0 UV-I 0 W/m 0,0 km/h (0 Bft)
05.04.2010 23:50 6,3 C 74 % 1026,2 hPa 0,0 mm 0,0 km/h (0 Bft) N 0 0 min 0 UV-I 0 W/m 0,0 km/h (0 Bft)
_ Min-Zeit 05:40 14:10 00:00 - 21:00 - - - - - 21:00
Minimum _ 5,7 C 45 % 1012,9 hPa - 0,0 km/h (0 Bft) - - - - - 0,0 km/h (0 Bft)
_ Max-Zeit 14:20 00:20 23:40 00:00 02:40 - - 16:01 13:30 12:10 02:00
Maximum _ 12,5 C 90 % 1026,2 hPa 0,5 mm 11,3 km/h
W (2 Bft)
- - 11 min 4 UV-I 942 W/m 27,4 km/h
W-SW (4 Bft)
Durchschnitt _ 8,5 C 69 % 1022,0 hPa #0,5 mm 4,8 km/h (1 Bft) W - #6:20 h 2 UV-I 366 W/m 14,4 km/h (3 Bft)